General Aviation Weather

Text Reports

Enter one or more of the following location identifiers separated by a space:

Zip Code, Four-Character ICAO or Three-Character IATA airport codes.

METAR - Aviation Routine Weather Report
ESMT - Halmstad,
Updated at 4:20 AM GMT on August 02, 2015 (6:20 AM CEST):
METAR ESMT 020420Z AUTO 13004KT 9999 FEW059/// 12/09 Q1018
TAF - Terminal Area Forecast
ESMT - Halmstad,
Updated at 4:20 AM GMT on August 02, 2015 (6:20 AM CEST):
No TAF is currently available for this location.
Decoded:
No decoded TAF is available.
PIREP - Pilot Weather Report
ESMT - Halmstad,
Updated at 4:20 AM GMT on August 02, 2015 (6:20 AM CEST):
No PIREP is currently available for this location.
AIRMET - Airmens Meteorological Information
ESMT - Halmstad,
Updated at 4:20 AM GMT on August 02, 2015 (6:20 AM CEST):
No AIRMET is currently available for this location.
SIGMET - Significant Meteorological Information
ESMT - Halmstad,
Updated at 4:20 AM GMT on August 02, 2015 (6:20 AM CEST):
No SIGMET is currently available for this location.
NOTAM - Notice to Airmen
ESMT - Halmstad,
Updated at 4:20 AM GMT on August 02, 2015 (6:20 AM CEST):
No NOTAM is currently available for this location.
Forecast Area
ESMT - Halmstad,
Updated at 4:20 AM GMT on August 02, 2015 (6:20 AM CEST):
No NOTAM is currently available for this location.
Aviation Weather Maps